LU4FBU-13 Weather Reports


Display with metric or nautical units.
time (UTC)temp
F
wind
direction
speed
MPH
gust
MPH
rain 1hr
in
rain 24hr
in
rain mn
in
humidity
%
barometer
mb
20260508201258 62 270 8.0 15.0 0.00 0.00 0.00 25 1006.8
20260508195730 62 270 10.0 16.0 0.00 0.00 0.00 24 1007.0
20260508173755 60 270 10.0 18.0 0.00 0.00 0.00 33 1008.2
20260508173244 60 270 8.0 18.0 0.00 0.00 0.00 35 1008.2
20260508153900 58 293 6.0 18.0 0.00 0.00 0.00 41 1010.2
20260508152331 57 293 5.0 18.0 0.00 0.00 0.00 42 1010.6
20260508133458 53 248 8.0 18.0 0.00 0.00 0.00 48 1010.7
20260508132438 53 270 6.0 17.0 0.00 0.00 0.00 49 1010.8
20260508120705 48 270 4.0 13.0 0.00 0.00 0.00 58 1010.6
20260508113605 47 270 5.0 11.0 0.00 0.00 0.00 63 1010.2
20260508110504 47 270 6.0 13.0 0.00 0.00 0.00 59 1009.6
20260508104424 47 180 5.0 13.0 0.00 0.00 0.00 56 1009.1
20260508102852 48 180 8.0 15.0 0.00 0.00 0.00 54 1008.9
20260508102343 48 180 6.0 15.0 0.00 0.00 0.00 53 1008.5
20260508101322 48 180 4.0 18.0 0.00 0.00 0.00 53 1008.3
20260508093710 48 180 11.0 20.0 0.00 0.00 0.00 55 1008.2
20260508092141 48 180 8.0 21.0 0.00 0.00 0.00 58 1008.1
20260508090611 47 180 7.0 18.0 0.00 0.00 0.00 61 1007.7
20260508082449 47 180 8.0 15.0 0.00 0.00 0.00 65 1007.1
20260508081939 47 180 6.0 15.0 0.00 0.00 0.00 64 1007.2
20260508081432 47 180 6.0 11.0 0.00 0.00 0.00 63 1007.0
20260508080918 48 180 7.0 11.0 0.00 0.00 0.00 63 1007.3
20260508074327 48 180 4.0 11.0 0.00 0.00 0.00 63 1007.1
20260508073311 49 180 5.0 16.0 0.00 0.00 0.00 62 1006.9
20260508071227 48 180 7.0 14.0 0.00 0.00 0.00 65 1007.0
20260508070108 48 180 5.0 13.0 0.00 0.00 0.00 64 1006.9
20260508065147 49 180 7.0 13.0 0.00 0.00 0.00 63 1006.9
20260508063107 49 180 7.0 13.0 0.00 0.00 0.00 61 1006.7
20260508053637 49 180 4.0 9.0 0.00 0.21 0.00 65 1007.3
20260508052105 49 180 2.0 11.0 0.00 0.21 0.00 69 1007.6
20260508045006 49 180 4.0 8.0 0.00 0.21 0.00 71 1007.4
20260508042924 49 180 4.0 9.0 0.00 0.21 0.00 71 1007.0
20260508042417 49 180 4.0 8.0 0.00 0.21 0.00 71 1007.1
20260508035313 52 180 4.0 11.0 0.00 0.21 0.00 62 1005.7
20260508033233 51 180 2.0 8.0 0.00 0.21 0.00 66 1006.0
20260508023542 53 180 6.0 11.0 0.00 0.21 0.21 61 1006.5
20260508022522 54 203 4.0 11.0 0.00 0.21 0.21 60 1006.3
20260508022012 54 203 4.0 11.0 0.00 0.21 0.21 60 1006.3
20260508015930 54 225 4.0 11.0 0.00 0.21 0.21 62 1006.3
20260508010748 53 270 5.0 11.0 0.00 0.21 0.21 72 1005.7
20260508005731 53 293 3.0 8.0 0.00 0.21 0.21 72 1005.8
20260508004216 54 270 2.0 7.0 0.00 0.21 0.21 69 1005.7
20260508003656 54 270 2.0 8.0 0.00 0.21 0.21 69 1005.7
20260507235016 55 270 2.0 4.0 0.00 0.21 0.21 71 1005.4
20260507233445 55 270 2.0 4.0 0.00 0.21 0.21 70 1005.6
20260507232937 56 270 2.0 4.0 0.00 0.21 0.21 70 1005.5
20260507223246 58 270 2.0 8.0 0.00 0.21 0.21 66 1005.2
20260507220143 58 270 2.0 4.0 0.00 0.21 0.21 72 1004.9
20260507214612 58 293 2.0 4.0 0.00 0.21 0.21 72 1004.2